TimeEST,TemperatureF,Dew PointF,Humidity,Sea Level PressureIn,VisibilityMPH,Wind Direction,Wind SpeedMPH,Gust SpeedMPH,PrecipitationIn,Events,Conditions,WindDirDegrees,DateUTC
12:01 AM,69.8,62.6,78,30.08,10.0,NNW,10.4,-,N/A,,Mostly Cloudy,330,2013-01-22 05:01:00
12:26 AM,69.8,62.6,78,30.07,10.0,NNW,11.5,-,N/A,,Scattered Clouds,330,2013-01-22 05:26:00
12:53 AM,70.0,63.0,78,30.07,10.0,NNW,11.5,-,N/A,,Clear,340,2013-01-22 05:53:00
1:53 AM,69.1,62.1,78,30.06,10.0,NNW,13.8,-,N/A,,Clear,330,2013-01-22 06:53:00
2:33 AM,69.8,62.6,78,30.06,10.0,NNW,11.5,-,N/A,,Mostly Cloudy,340,2013-01-22 07:33:00
2:45 AM,69.8,62.6,78,30.05,10.0,NNW,10.4,-,N/A,,Scattered Clouds,340,2013-01-22 07:45:00
2:53 AM,69.1,62.1,78,30.05,10.0,NNW,12.7,-,N/A,,Scattered Clouds,340,2013-01-22 07:53:00
3:06 AM,69.8,62.6,78,30.06,10.0,NNW,12.7,-,N/A,,Mostly Cloudy,330,2013-01-22 08:06:00
3:23 AM,68.0,60.8,78,30.06,10.0,NNW,11.5,-,N/A,,Scattered Clouds,340,2013-01-22 08:23:00
3:53 AM,68.0,60.1,76,30.06,10.0,NNW,12.7,-,N/A,,Partly Cloudy,340,2013-01-22 08:53:00
4:53 AM,68.0,59.0,73,30.07,10.0,NNW,13.8,-,N/A,,Partly Cloudy,340,2013-01-22 09:53:00
5:53 AM,68.0,59.0,73,30.09,10.0,North,12.7,17.3,N/A,,Scattered Clouds,350,2013-01-22 10:53:00
6:08 AM,68.0,59.0,73,30.09,10.0,North,11.5,-,N/A,,Mostly Cloudy,350,2013-01-22 11:08:00
6:24 AM,68.0,59.0,73,30.10,10.0,North,10.4,-,N/A,,Scattered Clouds,350,2013-01-22 11:24:00
6:53 AM,68.0,59.0,73,30.10,10.0,North,9.2,20.7,N/A,,Partly Cloudy,350,2013-01-22 11:53:00
7:53 AM,68.0,59.0,73,30.12,10.0,North,8.1,-,N/A,,Clear,360,2013-01-22 12:53:00
8:53 AM,69.1,59.0,70,30.14,10.0,North,10.4,-,N/A,,Clear,360,2013-01-22 13:53:00
9:53 AM,71.1,60.1,68,30.16,10.0,North,11.5,17.3,N/A,,Partly Cloudy,360,2013-01-22 14:53:00
10:53 AM,71.1,61.0,70,30.17,10.0,North,10.4,-,N/A,,Partly Cloudy,10,2013-01-22 15:53:00
11:53 AM,71.1,60.1,68,30.16,10.0,North,11.5,-,N/A,,Partly Cloudy,360,2013-01-22 16:53:00
12:53 PM,71.1,60.1,68,30.14,10.0,North,13.8,-,N/A,,Clear,360,2013-01-22 17:53:00
1:53 PM,71.1,60.1,68,30.12,10.0,North,13.8,19.6,N/A,,Clear,10,2013-01-22 18:53:00
2:53 PM,72.0,60.1,66,30.12,10.0,North,12.7,-,N/A,,Clear,350,2013-01-22 19:53:00
3:53 PM,72.0,59.0,64,30.13,10.0,North,11.5,-,N/A,,Clear,360,2013-01-22 20:53:00
4:53 PM,69.1,59.0,70,30.14,10.0,North,12.7,-,N/A,,Clear,360,2013-01-22 21:53:00
5:53 PM,69.1,59.0,70,30.16,10.0,North,9.2,-,N/A,,Clear,10,2013-01-22 22:53:00
6:53 PM,69.1,59.0,70,30.16,10.0,North,9.2,-,N/A,,Clear,10,2013-01-22 23:53:00
7:53 PM,69.1,59.0,70,30.17,10.0,North,8.1,-,N/A,,Clear,10,2013-01-23 00:53:00
8:53 PM,70.0,60.1,71,30.19,10.0,NNE,10.4,-,N/A,,Clear,20,2013-01-23 01:53:00
9:53 PM,70.0,59.0,68,30.20,10.0,NE,11.5,19.6,N/A,,Clear,40,2013-01-23 02:53:00
10:53 PM,69.1,57.9,68,30.20,10.0,NNE,15.0,19.6,N/A,,Partly Cloudy,30,2013-01-23 03:53:00
11:53 PM,68.0,57.9,70,30.19,10.0,NNE,16.1,23.0,N/A,,Partly Cloudy,30,2013-01-23 04:53:00